Location: Boiro
(42.6475°N, 8.8834°W)
Time: 03:36:16
(UTC+01:00)

S-56A Canister/Altair - Pass Details

Date: 06 December 2021
Orbit: 633 x 2499 km, 38.9° (Epoch: 18 January)

Event Time Altitude Azimuth Distance (km) Brightness Sun altitude
Exits shadow 05:26:16 13° 138° (SE) 1,991 10.0 -36.9°
Drops below altitude 10° 05:26:44 10° 135° (SE) 2,155 10.2 -36.8°
Sets 05:28:57 0° 127° (SE) 2,980 11.2 -36.4°
